This is the latest recevied weather packets stored in our database for station/object SP9KB-13. If no packets are shown the sender has not sent any weather packets the latest 10 day(s).
| Time | Temp. | Humidity | Pressure | Rain* | Wind** | Luminosity | Snow |
|---|---|---|---|---|---|---|---|
| 1777829179 | 13.89° C | 54% | 998.9 hPa | 0 mm | - | - | - |
| 1777828878 | 14.44° C | 50% | 998.9 hPa | 0 mm | - | - | - |
| 1777828577 | 15° C | 48% | 998.8 hPa | 0 mm | - | - | - |
| 1777828276 | 15.56° C | 49% | 998.7 hPa | 0 mm | - | - | - |
| 1777827976 | 16.11° C | 45% | 998.6 hPa | 0 mm | - | - | - |
| 1777827675 | 16.67° C | 47% | 998.8 hPa | 0 mm | - | - | - |
| 1777827374 | 16.67° C | 44% | 998.8 hPa | 0 mm | - | - | - |
| 1777827074 | 17.22° C | 40% | 998.7 hPa | 0 mm | - | - | - |
| 1777826773 | 17.78° C | 39% | 998.6 hPa | 0 mm | - | - | - |
| 1777826473 | 18.33° C | 37% | 998.7 hPa | 0 mm | - | - | - |
| 1777826172 | 18.33° C | 36% | 998.7 hPa | 0 mm | - | - | - |
| 1777825871 | 18.89° C | 37% | 998.8 hPa | 0 mm | - | - | - |
| 1777825571 | 18.89° C | 35% | 998.7 hPa | 0 mm | - | - | - |
| 1777825270 | 18.89° C | 36% | 998.7 hPa | 0 mm | - | - | - |
| 1777824969 | 19.44° C | 36% | 998.8 hPa | 0 mm | - | - | - |
| 1777824669 | 20.56° C | 34% | 998.7 hPa | 0 mm | - | - | - |
| 1777824368 | 20.56° C | 32% | 998.8 hPa | 0 mm | - | - | - |
| 1777824068 | 21.11° C | 32% | 998.7 hPa | 0 mm | - | - | - |
| 1777823766 | 21.67° C | 31% | 998.8 hPa | 0 mm | - | - | - |
| 1777823466 | 21.67° C | 31% | 998.9 hPa | 0 mm | - | - | - |
| 1777823165 | 21.67° C | 31% | 998.9 hPa | 0 mm | - | - | - |
| 1777822864 | 21.67° C | 29% | 998.9 hPa | 0 mm | - | - | - |
| 1777822564 | 22.22° C | 30% | 998.9 hPa | 0 mm | - | - | - |
| 1777822263 | 22.22° C | 29% | 999.2 hPa | 0 mm | - | - | - |
| 1777821963 | 21.67° C | 30% | 998.9 hPa | 0 mm | - | - | - |
* Rain latest hour (hover to see other rain measurements)
** Current wind speed in m/s (hover to see current wind gust speed)